Live-Position
3D-Globus wird geladen...
Über Starlink 4310
Group: 3 satellites
Beschreibung wird geladen...
Nächste Überflüge
Passes for default location (London). Set your location on the main map for personalized predictions.
Höhenverlauf
Loading altitude history...
No altitude history available
Zweizeiliger Elementsatz
1 53074U 22077AH 26104.92942142 .00000690 00000-0 52045-4 0 9998
2 53074 97.6022 286.9063 0001494 94.5374 265.6023 15.05645635206430
Epoch: 14. Apr. 2026 •
Age: 10 hours
Aktueller Status
Höhe 554.8 km
Geschwindigkeit 7.59 km/s
Subsatellitenpunkt 41.21°N,
143.15°E
Startdatum 11. Juli 2022
Alter 3.7 years
Typ internet
Startgruppe
Falcon 9 •
Group 3-1 •
43 satellites
Starlink 4362
53043
Starlink 4349 53044
Starlink 4350 53045
Starlink 4331 53046
Starlink 4352 53047
Starlink 4355 53048
Starlink 4345 53049
Starlink 4343 53050
Starlink 4336 53051
Starlink 4341 53052
Starlink 4337 53053
Starlink 4339 53054
Starlink 4338 53055
Starlink 4314 53056
Starlink 4252 53057
Starlink 4317 53058
Starlink 4320 53059
Starlink 4305 53060
Starlink 4308 53061
Starlink 4311 53062
...and 22 more
Technische Details
Klassifizierung Payload
Masse 297.00 kg
Trockenmasse 275.00 kg
Gesamtmasse 297.00 kg
Länge 0.20 m
Durchmesser 2.80 m
Spannweite 9.00 m
Form Box + pan
Hersteller SPXS
Bus-Typ Starlink
Phasenstatus In Orbit
Besitzer/Staat SPXS/US
Most Searched
Loading...